TimeMDT,TemperatureF,Dew PointF,Humidity,Sea Level PressureIn,VisibilityMPH,Wind Direction,Wind SpeedMPH,Gust SpeedMPH,PrecipitationIn,Events,Conditions,WindDirDegrees,DateUTC
12:15 AM,46.4,24.8,43,30.04,10.0,Calm,Calm,-,N/A,,Clear,0,2013-05-26 06:15:00
12:35 AM,46.4,26.6,46,30.04,10.0,Calm,Calm,-,N/A,,Clear,0,2013-05-26 06:35:00
12:55 AM,44.6,26.6,49,30.04,10.0,Calm,Calm,-,N/A,,Clear,0,2013-05-26 06:55:00
1:15 AM,44.6,26.6,49,30.04,10.0,Calm,Calm,-,N/A,,Clear,0,2013-05-26 07:15:00
1:35 AM,42.8,26.6,53,30.04,10.0,NW,4.6,-,N/A,,Clear,310,2013-05-26 07:35:00
1:55 AM,41.0,26.6,57,30.03,10.0,West,4.6,-,N/A,,Clear,280,2013-05-26 07:55:00
2:15 AM,41.0,28.4,61,30.03,10.0,West,4.6,-,N/A,,Clear,280,2013-05-26 08:15:00
2:35 AM,39.2,28.4,65,30.03,10.0,NW,4.6,-,N/A,,Clear,310,2013-05-26 08:35:00
2:55 AM,37.4,28.4,70,30.03,10.0,West,4.6,-,N/A,,Clear,270,2013-05-26 08:55:00
3:15 AM,37.4,28.4,70,30.03,10.0,NW,8.1,-,N/A,,Scattered Clouds,310,2013-05-26 09:15:00
3:35 AM,35.6,28.4,75,30.03,10.0,West,5.8,-,N/A,,Clear,280,2013-05-26 09:35:00
3:55 AM,35.6,28.4,75,30.04,10.0,West,4.6,-,N/A,,Clear,280,2013-05-26 09:55:00
4:15 AM,35.6,28.4,75,30.05,10.0,NW,5.8,-,N/A,,Scattered Clouds,310,2013-05-26 10:15:00
4:35 AM,35.6,28.4,75,30.05,10.0,WNW,4.6,-,N/A,,Clear,300,2013-05-26 10:35:00
4:55 AM,35.6,28.4,75,30.05,10.0,West,4.6,-,N/A,,Clear,270,2013-05-26 10:55:00
5:15 AM,35.6,28.4,75,30.05,10.0,West,4.6,-,N/A,,Clear,260,2013-05-26 11:15:00
5:35 AM,35.6,28.4,75,30.05,10.0,West,3.5,-,N/A,,Clear,280,2013-05-26 11:35:00
5:55 AM,35.6,28.4,75,30.05,10.0,WNW,3.5,-,N/A,,Clear,300,2013-05-26 11:55:00
6:15 AM,37.4,30.2,75,30.05,10.0,WNW,4.6,-,N/A,,Clear,290,2013-05-26 12:15:00
6:35 AM,39.2,30.2,70,30.05,10.0,NNW,3.5,-,N/A,,Clear,330,2013-05-26 12:35:00
6:55 AM,39.2,30.2,70,30.05,10.0,NW,5.8,-,N/A,,Clear,320,2013-05-26 12:55:00
7:15 AM,41.0,30.2,65,30.06,10.0,WNW,4.6,-,N/A,,Clear,300,2013-05-26 13:15:00
7:35 AM,42.8,32.0,66,30.06,10.0,NW,3.5,-,N/A,,Clear,310,2013-05-26 13:35:00
7:55 AM,44.6,30.2,57,30.06,10.0,Calm,Calm,-,N/A,,Clear,0,2013-05-26 13:55:00
8:15 AM,50.0,30.2,47,30.06,10.0,East,3.5,-,N/A,,Clear,100,2013-05-26 14:15:00
8:35 AM,51.8,30.2,44,30.05,10.0,East,3.5,-,N/A,,Clear,100,2013-05-26 14:35:00
8:55 AM,55.4,28.4,36,30.05,10.0,SE,5.8,-,N/A,,Scattered Clouds,130,2013-05-26 14:55:00
9:15 AM,57.2,28.4,33,30.05,10.0,ESE,5.8,-,N/A,,Scattered Clouds,110,2013-05-26 15:15:00
9:35 AM,59.0,28.4,31,30.05,10.0,SE,5.8,-,N/A,,Scattered Clouds,130,2013-05-26 15:35:00
9:55 AM,60.8,21.2,22,30.05,10.0,South,11.5,-,N/A,,Scattered Clouds,190,2013-05-26 15:55:00
10:15 AM,62.6,21.2,20,30.03,10.0,South,10.4,-,N/A,,Scattered Clouds,190,2013-05-26 16:15:00
10:35 AM,62.6,21.2,20,30.03,10.0,SSW,8.1,-,N/A,,Clear,200,2013-05-26 16:35:00
10:55 AM,62.6,17.6,18,30.03,10.0,SSW,10.4,16.1,N/A,,Clear,210,2013-05-26 16:55:00
11:15 AM,64.4,17.6,16,30.03,10.0,South,6.9,18.4,N/A,,Clear,190,2013-05-26 17:15:00
11:35 AM,64.4,17.6,16,30.03,10.0,Calm,Calm,-,N/A,,Clear,0,2013-05-26 17:35:00
11:55 AM,64.4,19.4,18,30.03,10.0,SSW,12.7,19.6,N/A,,Clear,210,2013-05-26 17:55:00
12:15 PM,66.2,19.4,17,30.02,10.0,WSW,6.9,17.3,N/A,,Clear,250,2013-05-26 18:15:00
12:35 PM,64.4,17.6,16,30.01,10.0,South,9.2,17.3,N/A,,Clear,180,2013-05-26 18:35:00
12:55 PM,64.4,19.4,18,30.01,10.0,South,9.2,-,N/A,,Scattered Clouds,190,2013-05-26 18:55:00
1:15 PM,66.2,19.4,17,30.01,10.0,SSE,6.9,18.4,N/A,,Scattered Clouds,150,2013-05-26 19:15:00
1:35 PM,68.0,21.2,17,30.00,10.0,South,12.7,21.9,N/A,,Scattered Clouds,190,2013-05-26 19:35:00
1:55 PM,68.0,17.6,15,30.00,10.0,SSW,9.2,21.9,N/A,,Scattered Clouds,210,2013-05-26 19:55:00
2:15 PM,68.0,17.6,15,29.99,10.0,South,12.7,23.0,N/A,,Scattered Clouds,170,2013-05-26 20:15:00
2:35 PM,68.0,17.6,15,29.99,10.0,SSW,13.8,20.7,N/A,,Clear,210,2013-05-26 20:35:00
2:55 PM,69.8,17.6,14,29.99,10.0,SSW,19.6,27.6,N/A,,Clear,210,2013-05-26 20:55:00
3:15 PM,68.0,14.0,12,30.00,10.0,SW,16.1,24.2,N/A,,Scattered Clouds,220,2013-05-26 21:15:00
3:35 PM,68.0,14.0,12,29.99,10.0,SW,10.4,24.2,N/A,,Scattered Clouds,230,2013-05-26 21:35:00
3:55 PM,66.2,14.0,13,29.99,10.0,SW,12.7,21.9,N/A,,Mostly Cloudy,230,2013-05-26 21:55:00
4:15 PM,68.0,15.8,13,29.99,10.0,SW,11.5,19.6,N/A,,Scattered Clouds,220,2013-05-26 22:15:00
4:35 PM,68.0,14.0,12,29.98,10.0,SSW,5.8,21.9,N/A,,Scattered Clouds,200,2013-05-26 22:35:00
4:55 PM,68.0,14.0,12,29.98,10.0,SW,11.5,24.2,N/A,,Scattered Clouds,230,2013-05-26 22:55:00
5:15 PM,68.0,14.0,12,29.98,10.0,WSW,11.5,25.3,N/A,,Clear,240,2013-05-26 23:15:00
5:35 PM,66.2,14.0,13,29.98,10.0,SW,10.4,23.0,N/A,,Scattered Clouds,220,2013-05-26 23:35:00
5:55 PM,66.2,17.6,15,29.97,10.0,SW,10.4,21.9,N/A,,Scattered Clouds,220,2013-05-26 23:55:00
6:15 PM,64.4,17.6,16,29.97,10.0,WSW,11.5,21.9,N/A,,Clear,250,2013-05-27 00:15:00
6:35 PM,64.4,19.4,18,29.97,10.0,SW,16.1,19.6,N/A,,Clear,230,2013-05-27 00:35:00
6:55 PM,64.4,19.4,18,29.97,10.0,West,17.3,23.0,N/A,,Clear,260,2013-05-27 00:55:00
7:15 PM,64.4,21.2,19,29.97,10.0,West,15.0,-,N/A,,Clear,270,2013-05-27 01:15:00
7:35 PM,64.4,19.4,18,29.97,10.0,WSW,10.4,-,N/A,,Clear,240,2013-05-27 01:35:00
7:55 PM,62.6,23.0,22,29.99,10.0,WNW,19.6,-,N/A,,Clear,290,2013-05-27 01:55:00
8:15 PM,59.0,26.6,29,30.00,10.0,NW,16.1,27.6,N/A,,Clear,310,2013-05-27 02:15:00
8:35 PM,57.2,30.2,36,30.00,10.0,NW,11.5,-,N/A,,Clear,320,2013-05-27 02:35:00
8:55 PM,55.4,28.4,36,30.00,10.0,North,10.4,-,N/A,,Clear,350,2013-05-27 02:55:00
9:15 PM,55.4,28.4,36,30.00,10.0,NW,3.5,-,N/A,,Clear,310,2013-05-27 03:15:00
9:35 PM,53.6,28.4,38,29.99,10.0,NW,3.5,-,N/A,,Clear,320,2013-05-27 03:35:00
9:55 PM,53.6,26.6,35,29.99,10.0,Calm,Calm,-,N/A,,Clear,0,2013-05-27 03:55:00
10:15 PM,53.6,28.4,38,29.99,10.0,Calm,Calm,-,N/A,,Clear,0,2013-05-27 04:15:00
10:35 PM,53.6,28.4,38,29.99,10.0,West,4.6,-,N/A,,Scattered Clouds,280,2013-05-27 04:35:00
10:55 PM,51.8,28.4,41,29.99,10.0,WNW,4.6,-,N/A,,Clear,300,2013-05-27 04:55:00
11:15 PM,50.0,28.4,43,29.99,10.0,WNW,3.5,-,N/A,,Clear,300,2013-05-27 05:15:00
11:35 PM,48.2,30.2,50,29.99,10.0,NW,4.6,-,N/A,,Clear,310,2013-05-27 05:35:00
11:55 PM,48.2,30.2,50,29.99,10.0,NW,6.9,-,N/A,,Clear,320,2013-05-27 05:55:00